| time (UTC) | temp F | wind direction | speed MPH | gust MPH | rain 1hr in | rain 24hr in | rain mn in | humidity % | barometer mb |
| 20260504011517 | 50 | 0.0 | 0.0 | 0.00 | 0.00 | 0.00 | 51 | 1018.3 | |
| 20260504010537 | 51 | 0.0 | 0.0 | 0.00 | 0.00 | 0.00 | 49 | 1018.1 | |
| 20260504005537 | 52 | 0.0 | 0.0 | 0.00 | 0.00 | 0.00 | 48 | 1018.0 | |
| 20260504004517 | 52 | 0.0 | 0.0 | 0.00 | 0.00 | 0.00 | 47 | 1018.0 | |
| 20260504003517 | 53 | 0.0 | 0.0 | 0.00 | 0.00 | 0.00 | 43 | 1017.9 | |
| 20260504002517 | 54 | 0.0 | 0.0 | 0.00 | 0.00 | 0.00 | 42 | 1017.7 | |
| 20260504001517 | 54 | 0.0 | 0.0 | 0.00 | 0.00 | 0.00 | 38 | 1017.5 | |
| 20260504000517 | 55 | 0.0 | 0.0 | 0.00 | 0.00 | 0.00 | 37 | 1017.4 | |
| 20260503235517 | 56 | 0.0 | 0.0 | 0.00 | 0.00 | 0.00 | 36 | 1017.3 | |
| 20260503234537 | 57 | 0.0 | 0.0 | 0.00 | 0.00 | 0.00 | 36 | 1017.3 | |
| 20260503233517 | 58 | 0.0 | 0.0 | 0.00 | 0.00 | 0.00 | 36 | 1017.4 | |
| 20260503232517 | 58 | 0.0 | 0.0 | 0.00 | 0.00 | 0.00 | 34 | 1017.4 | |
| 20260503231517 | 59 | 0.0 | 0.0 | 0.00 | 0.00 | 0.00 | 32 | 1017.3 | |
| 20260503230537 | 59 | 0.0 | 0.0 | 0.00 | 0.00 | 0.00 | 32 | 1017.3 | |
| 20260503225517 | 60 | 0.0 | 0.0 | 0.00 | 0.00 | 0.00 | 34 | 1017.2 | |
| 20260503224517 | 60 | 0.0 | 1.0 | 0.00 | 0.00 | 0.00 | 30 | 1017.2 | |
| 20260503223517 | 61 | 203 | 1.0 | 5.0 | 0.00 | 0.00 | 0.00 | 27 | 1017.3 |
| 20260503222517 | 61 | 135 | 1.0 | 3.0 | 0.00 | 0.00 | 0.00 | 29 | 1017.3 |
| 20260503221517 | 61 | 135 | 1.0 | 2.0 | 0.00 | 0.00 | 0.00 | 28 | 1017.3 |
| 20260503220517 | 61 | 68 | 1.0 | 3.0 | 0.00 | 0.00 | 0.00 | 24 | 1017.3 |
| 20260503215517 | 61 | 68 | 1.0 | 4.0 | 0.00 | 0.00 | 0.00 | 24 | 1017.2 |
| 20260503214517 | 61 | 0.0 | 2.0 | 0.00 | 0.00 | 0.00 | 25 | 1017.1 | |
| 20260503213517 | 61 | 23 | 2.0 | 7.0 | 0.00 | 0.00 | 0.00 | 23 | 1017.1 |
| 20260503212517 | 61 | 90 | 1.0 | 4.0 | 0.00 | 0.00 | 0.00 | 24 | 1017.1 |
| 20260503211517 | 61 | 203 | 1.0 | 8.0 | 0.00 | 0.00 | 0.00 | 25 | 1017.1 |
| 20260503210517 | 62 | 293 | 2.0 | 4.0 | 0.00 | 0.00 | 0.00 | 24 | 1017.0 |
| 20260503205537 | 62 | 90 | 1.0 | 3.0 | 0.00 | 0.00 | 0.00 | 25 | 1017.1 |
| 20260503204537 | 62 | 45 | 2.0 | 5.0 | 0.00 | 0.00 | 0.00 | 23 | 1017.0 |
| 20260503203517 | 62 | 180 | 1.0 | 4.0 | 0.00 | 0.00 | 0.00 | 25 | 1017.0 |
| 20260503202537 | 62 | 45 | 2.0 | 4.0 | 0.00 | 0.00 | 0.00 | 25 | 1017.1 |
| 20260503201517 | 62 | 135 | 1.0 | 3.0 | 0.00 | 0.00 | 0.00 | 25 | 1017.3 |
| 20260503200517 | 62 | 180 | 2.0 | 5.0 | 0.00 | 0.00 | 0.00 | 26 | 1017.5 |
| 20260503195517 | 62 | 23 | 2.0 | 4.0 | 0.00 | 0.00 | 0.00 | 24 | 1017.7 |
| 20260503194517 | 63 | 45 | 2.0 | 8.0 | 0.00 | 0.00 | 0.00 | 23 | 1017.8 |
| 20260503193516 | 63 | 68 | 2.0 | 5.0 | 0.00 | 0.00 | 0.00 | 24 | 1017.7 |
| 20260503192517 | 63 | 180 | 1.0 | 5.0 | 0.00 | 0.00 | 0.00 | 25 | 1017.8 |
| 20260503191537 | 62 | 203 | 2.0 | 5.0 | 0.00 | 0.00 | 0.00 | 24 | 1017.9 |
| 20260503190517 | 62 | 315 | 2.0 | 5.0 | 0.00 | 0.00 | 0.00 | 25 | 1018.0 |
| 20260503185517 | 62 | 68 | 2.0 | 9.0 | 0.00 | 0.00 | 0.00 | 24 | 1017.9 |
| 20260503184517 | 62 | 23 | 2.0 | 4.0 | 0.00 | 0.00 | 0.00 | 26 | 1018.1 |
| 20260503183517 | 62 | 23 | 2.0 | 5.0 | 0.00 | 0.00 | 0.00 | 24 | 1018.2 |
| 20260503182517 | 61 | 68 | 2.0 | 4.0 | 0.00 | 0.00 | 0.00 | 26 | 1018.2 |
| 20260503181536 | 60 | 315 | 2.0 | 7.0 | 0.00 | 0.00 | 0.00 | 26 | 1018.2 |
| 20260503180517 | 61 | 45 | 2.0 | 9.0 | 0.00 | 0.00 | 0.00 | 25 | 1018.5 |
| 20260503175636 | 61 | 338 | 2.0 | 6.0 | 0.00 | 0.00 | 0.00 | 27 | 1018.6 |
| 20260503174516 | 60 | 270 | 2.0 | 6.0 | 0.00 | 0.00 | 0.00 | 27 | 1018.4 |
| 20260503173516 | 59 | 315 | 2.0 | 5.0 | 0.00 | 0.00 | 0.00 | 25 | 1018.7 |
| 20260503172517 | 59 | 338 | 3.0 | 9.0 | 0.00 | 0.00 | 0.00 | 24 | 1018.9 |
| 20260503171516 | 60 | 180 | 1.0 | 3.0 | 0.00 | 0.00 | 0.00 | 29 | 1018.7 |
| 20260503170516 | 59 | 338 | 2.0 | 8.0 | 0.00 | 0.00 | 0.00 | 27 | 1018.7 |
| 20260503150516 | 56 | 45 | 2.0 | 11.0 | 0.00 | 0.00 | 0.00 | 30 | 1019.1 |
| 20260503130516 | 52 | 113 | 2.0 | 6.0 | 0.00 | 0.00 | 0.00 | 41 | 1019.0 |
| 20260503110536 | 47 | 0.0 | 2.0 | 0.00 | 0.00 | 0.00 | 53 | 1017.8 | |
| 20260503081525 | 50 | 0.0 | 0.0 | 0.00 | 0.00 | 0.00 | 59 | 1015.2 | |
| 20260503080518 | 50 | 0.0 | 0.0 | 0.00 | 0.00 | 0.00 | 57 | 1015.0 | |
| 20260503072517 | 50 | 0.0 | 2.0 | 0.00 | 0.00 | 0.00 | 55 | 1014.6 | |
| 20260503071517 | 50 | 0.0 | 2.0 | 0.00 | 0.00 | 0.00 | 58 | 1014.4 | |
| 20260503070536 | 49 | 0.0 | 2.0 | 0.00 | 0.00 | 0.00 | 59 | 1014.4 | |
| 20260503054523 | 47 | 0.0 | 1.0 | 0.00 | 0.00 | 0.00 | 66 | 1014.0 | |
| 20260503053518 | 47 | 0.0 | 0.0 | 0.00 | 0.00 | 0.00 | 66 | 1013.9 | |
| 20260503052520 | 47 | 0.0 | 0.0 | 0.00 | 0.00 | 0.00 | 66 | 1014.1 | |
| 20260503051541 | 47 | 0.0 | 0.0 | 0.00 | 0.00 | 0.00 | 66 | 1014.2 | |
| 20260503050517 | 47 | 0.0 | 0.0 | 0.00 | 0.00 | 0.00 | 65 | 1014.2 | |
| 20260503045518 | 47 | 0.0 | 0.0 | 0.00 | 0.00 | 0.00 | 65 | 1014.2 | |
| 20260503044518 | 47 | 0.0 | 0.0 | 0.00 | 0.00 | 0.00 | 65 | 1014.2 | |
| 20260503043520 | 47 | 0.0 | 0.0 | 0.00 | 0.00 | 0.00 | 64 | 1014.1 | |
| 20260503042537 | 47 | 0.0 | 0.0 | 0.00 | 0.00 | 0.00 | 64 | 1014.4 | |
| 20260503041517 | 48 | 0.0 | 0.0 | 0.00 | 0.00 | 0.00 | 64 | 1014.1 | |
| 20260503040522 | 48 | 0.0 | 0.0 | 0.00 | 0.00 | 0.00 | 63 | 1014.3 | |
| 20260503035516 | 48 | 0.0 | 0.0 | 0.00 | 0.00 | 0.00 | 63 | 1014.3 | |
| 20260503034536 | 49 | 0.0 | 0.0 | 0.00 | 0.00 | 0.00 | 62 | 1014.2 | |
| 20260503033536 | 49 | 0.0 | 0.0 | 0.00 | 0.00 | 0.00 | 63 | 1014.1 | |
| 20260503032516 | 49 | 0.0 | 0.0 | 0.00 | 0.00 | 0.00 | 63 | 1014.1 | |
| 20260503031515 | 50 | 0.0 | 0.0 | 0.00 | 0.00 | 0.00 | 63 | 1014.0 | |
| 20260503030515 | 50 | 0.0 | 0.0 | 0.00 | 0.00 | 0.00 | 62 | 1014.0 | |
| 20260503025515 | 50 | 0.0 | 0.0 | 0.00 | 0.00 | 0.00 | 61 | 1014.1 | |
| 20260503024616 | 50 | 0.0 | 0.0 | 0.00 | 0.00 | 0.00 | 61 | 1014.1 | |
| 20260503023515 | 50 | 0.0 | 0.0 | 0.00 | 0.00 | 0.00 | 60 | 1014.2 | |
| 20260503022536 | 50 | 0.0 | 0.0 | 0.00 | 0.00 | 0.00 | 60 | 1014.0 | |
| 20260503021535 | 50 | 0.0 | 0.0 | 0.00 | 0.00 | 0.00 | 61 | 1014.1 | |
| 20260503020515 | 50 | 0.0 | 0.0 | 0.00 | 0.00 | 0.00 | 60 | 1013.9 | |
| 20260503015518 | 50 | 0.0 | 1.0 | 0.00 | 0.00 | 0.00 | 59 | 1014.2 | |
| 20260503014558 | 51 | 0.0 | 0.0 | 0.00 | 0.00 | 0.00 | 59 | 1014.0 | |
| 20260503013517 | 51 | 0.0 | 0.0 | 0.00 | 0.00 | 0.00 | 59 | 1014.0 | |
| 20260503012517 | 51 | 0.0 | 0.0 | 0.00 | 0.00 | 0.00 | 59 | 1013.9 |